Muscatine, IA

8:46 PM CDT on May 25, 2015 (GMT -0500)
MesoWest | | Change Station
CLOSE
Current Station
Personal Weather Station
Location: Muscatine, IA
Elevation: 534 ft
Nearby Weather Stations

Elev 534 ft 41.42 °N, 91.03 °W | Updated 36 minutes ago

Clear
Clear
73 °F
Feels Like 74 °F
N
5
Wind Variable Wind from ESE
Gusts 8.0 mph

Today
High -- | Low -- °F
--% Chance of Precip.
Yesterday
High -- | Low -- °F
Precip. -- in
5:36 AM 8:25 PM
First Quarter, 53% visible
Pressure 29.88 in
Visibility 10.0 miles
Clouds Clear
Heat Index 74 °F
Dew Point 65 °F
Humidity 74%
Rainfall in
Snow Depth Not available.
UV 0 out of 12
Pollen 6.90 out of 12
Air Quality Not available.
Flu Activity Sporadic
METAR KMUT 260135Z AUTO 18007KT 10SM CLR 22/18 A2988 RMK AO2

More Conditions Fewer Conditions

Pressure 29.88 in
Visibility 10.0 miles
Clouds Clear
Heat Index 74 °F
Dew Point 65 °F
Humidity 74%
Rainfall in
Snow Depth Not available.
UV 0 out of 12
Pollen 6.90 out of 12
Air Quality Not available.
Flu Activity Sporadic
METAR KMUT 260135Z AUTO 18007KT 10SM CLR 22/18 A2988 RMK AO2

More Conditions Fewer Conditions

10-Day Weather Forecast

Almanac

Astronomy

May. 25, 2015 Rise Set
Actual Time
Civil Twilight
Nautical Twilight
Astronomical Twilight
Moon
Length of Visible Light
Length of Day
Tomorrow will be .
, % of the Moon is Illuminated

Today's Extremes

State Highs State Lows

Community

WunderPhotos

Upload Photos

1,824,221 photos uploaded!

WunderBlogs® & News

Nearby

Air Quality

  Air Quality AQ Index Pollutant
Not available.

Snow Depth

Station Depth Elevation

Earthquake Activity

City Distance Mag. Time & Date
Minimum magnitude displayed is 2.5.

Coastal Water Temperatures

Place Temperature

Stations

Nearby Weather Stations

Station Location Temp. Windchill Dew Point Humidity Wind Precip. Elev Updated Type